Regional Weather Roundup
Issued by NWS

Home | Current Version | Previous Version | Graphics & Text | Print | Product List | Glossary On
Versions: 1 2 3 4 5 6 7 8 9 10 11 12 13 14 15 16 17 18 19 20 21 22 23 24 25 26 27 28 29 30 31 32 33 34 35 36 37 38 39 40 41 42 43 44 45 46 47 48 49 50
000
ASUS43 KDMX 200107
RWRIA

WEATHER ROUNDUP FOR IOWA
NATIONAL WEATHER SERVICE DES MOINES IA
700 PM CST FRI DEC 19 2014

NOTE: "FAIR" INDICATES FEW OR NO CLOUDS BELOW 12,000 FEET WITH NO
SIGNIFICANT WEATHER AND/OR OBSTRUCTIONS TO VISIBILITY.

* - THESE STATIONS ARE NOT NWS STATIONS...THUS NOT UNDER NWS
QUALITY CONTROL.  THEY ALSO DO NOT REPORT WEATHER SUCH
AS PRECIPITATION OR FOG.

IAZ001>003-012>014-020>022-031>034-043>046-200200-
   NORTHWEST IOWA

CITY           SKY/WX    TMP DP  RH WIND       PRES   REMARKS
CARROLL *      CLOUDY    32  30  93 S8        30.16S FOG     WCI  25
CHEROKEE *     CLOUDY    32  28  86 S10       30.13S WCI  24
DENISON *      CLOUDY    30  30 100 S10       30.13S WCI  21
LE MARS *      CLOUDY    32  28  86 S12       30.13S WCI  23
ORANGE CITY *  CLOUDY    32  27  80 S15       30.11S WCI  22
SHELDON *      CLOUDY    32  30  93 S12       30.11S WCI  23
SIOUX CITY     CLOUDY    34  28  79 S9        30.13S WCI  27
SPENCER        CLOUDY    33  28  81 S9        30.13S WCI  25
STORM LAKE *   CLOUDY    32  30  93 S13       30.13F WCI  22
$$

IAZ055>058-069>071-079>083-090>094-200200-
   SOUTHWEST IOWA

CITY           SKY/WX    TMP DP  RH WIND       PRES   REMARKS
ATLANTIC *     CLOUDY    28  28 100 SW8G15    30.18R WCI  20
AUDUBON *      MIX PCPN  30  25  80 S7        30.17S WCI  23
CLARINDA *     MIX PCPN  30  28  93 SW6       30.22R WCI  24
COUNCIL BLFS * CLOUDY    30  30 100 S6        30.15S WCI  24
CRESTON *      CLOUDY    30  30 100 S8        30.18S FOG     WCI  23
HARLAN  *      CLOUDY    30  30 100 S10       30.20S WCI  21
LAMONI         CLOUDY    31  29  92 SE6       30.19S WCI  25
RED OAK *      CLOUDY    30  30 100 S8        30.19R WCI  23
SHENANDOAH *   CLOUDY    30  30 100 S6        30.21R WCI  24
$$

IAZ047>049-059>061-072>074-084-200200-
   CENTRAL IOWA

CITY           SKY/WX    TMP DP  RH WIND       PRES   REMARKS
AMES           CLOUDY    30  27  88 SE7       30.20S FOG     WCI  23
ANKENY *       CLOUDY    32  28  86 SE8       30.20F WCI  25
CHARITON *     CLOUDY    32  30  93 SE6       30.20S FOG     WCI  26
DES MOINES     CLOUDY    33  28  81 SE7       30.20S WCI  27
GRINNELL*      CLOUDY    30  27  86 E6        30.21F WCI  24
KNOXVILLE *    CLOUDY    30  27  86 SE7       30.20S WCI  23
MARSHALLTOWN   CLOUDY    29  25  85 SE9       30.20F WCI  20
PELLA *        CLOUDY    30  27  86 SE8       30.23S WCI  23
PERRY *        CLOUDY    32  32 100 SE6       30.18S FOG     WCI  26
$$

IAZ004>006-015-016-023>025-035-036-200200-
   NORTH CENTRAL IOWA

CITY           SKY/WX    TMP DP  RH WIND       PRES   REMARKS
ALGONA *       CLOUDY    32  30  93 SE9       30.15F FOG     WCI  24
CLARION *      CLOUDY    30  30 100 SE9       30.18S WCI  22
ESTHERVILLE    CLOUDY    31  29  92 S9        30.13F FOG     WCI  23
FORT DODGE *   CLOUDY    30  27  86 SE6       30.17S WCI  24
MASON CITY     CLOUDY    29  26  89 S9        30.19F WCI  20
FOREST CITY *  CLOUDY    32  28  86 SE9       30.17F FOG     WCI  24
IOWA FALLS *   CLOUDY    30  27  86 SE8       30.20F WCI  23
$$

IAZ007>011-017>019-026>030-037>042-050>054-066-200200-
   NORTHEAST IOWA

CITY           SKY/WX    TMP DP  RH WIND       PRES   REMARKS
CEDAR RAPIDS   CLOUDY    29  22  75 SE6       30.23F WCI  23
CHARLES CITY * CLOUDY    28  27  93 SE9       30.21F WCI  20
CLINTON *      PTCLDY    21  18  86 E6        30.30S WCI  14
DECORAH *      CLOUDY    27  23  86 SE6       30.21F WCI  20
DUBUQUE        CLOUDY    26  21  81 CALM      30.24F
MONTICELLO *   CLOUDY    28  25  86 E5        30.25F WCI  23
OELWEIN *      CLOUDY    28  23  80 SE7       30.23S WCI  21
WATERLOO       CLOUDY    29  24  82 SE6       30.22F WCI  23
$$

IAZ064-065-067-068-078-200200-
   EAST CENTRAL IOWA

CITY           SKY/WX    TMP DP  RH WIND       PRES   REMARKS
DAVENPORT      PTCLDY    26  21  81 E8        30.27S WCI  18
IOWA CITY      CLOUDY    30  21  69 E5        30.27S WCI  25
MT. PLEASANT * CLOUDY    30  25  80 CALM      30.25S
MUSCATINE *    CLOUDY    32  23  69 E5        30.27F WCI  27
QUAD CITIES    CLOUDY    26  21  81 E7        30.27S WCI  18
$$

IAZ062-063-075>077-085>089-095>099-200200-
   SOUTHEAST IOWA

CITY           SKY/WX    TMP DP  RH WIND       PRES   REMARKS
BURLINGTON     CLOUDY    32  24  72 SE6       30.25F WCI  26
FAIRFIELD *    CLOUDY    30  25  80 SE6       30.24S WCI  24
FORT MADISON * CLOUDY    34  28  80 CALM      30.26S
KEOKUK *       CLOUDY    32  27  80 CALM      30.25S
OSKALOOSA *    CLOUDY    30  27  86 SE7       30.23S FOG     WCI  23
CENTERVILLE *  CLOUDY    32  32 100 SE8       30.23R WCI  25
OTTUMWA        CLOUDY    30  25  81 SE7       30.23S WCI  23
WASHINGTON *   CLOUDY    30  28  93 SE3       30.25S
$$

ABBREVIATIONS USED IN REMARKS
   TC - TEMPERATURES IN CELSIUS
  WCI - WIND CHILL INDEX
   HX - HEAT INDEX
  VSB - VISIBILITY
$$



USA.gov is the U.S. government's official web portal to all federal, state and local government web resources and services.